GW0656 Weather Reports


Display with metric or nautical units.
time (UTC)temp
F
wind
direction
speed
MPH
gust
MPH
rain 1hr
in
rain 24hr
in
rain mn
in
humidity
%
barometer
mb
20260906113044 68 0 0.0 1.0 0.00 0.03 0.00 95 1013.4
20260906112525 68 0 0.0 1.0 0.00 0.03 0.00 95 1013.3
20260906112024 68 0 0.0 1.0 0.00 0.03 0.00 95 1013.3
20260906111553 68 0 0.0 2.0 0.00 0.03 0.00 95 1013.2
20260906111025 68 0 0.0 2.0 0.00 0.03 0.00 95 1013.0
20260906110524 68 74 0.0 1.0 0.00 0.03 0.00 95 1012.9
20260906110053 68 0 0.0 0.0 0.00 0.03 0.00 95 1012.9
20260906105526 68 0 0.0 0.0 0.00 0.03 0.00 95 1012.9
20260906105026 68 0 0.0 2.0 0.00 0.03 0.00 95 1012.7
20260906104540 68 0 0.0 2.0 0.00 0.03 0.00 95 1012.8
20260906104023 69 0 1.0 2.0 0.00 0.03 0.00 95 1012.8
20260906103524 69 0 0.0 2.0 0.00 0.03 0.00 95 1012.7
20260906103044 69 74 1.0 2.0 0.00 0.03 0.00 95 1012.5
20260906102524 69 74 0.0 2.0 0.00 0.03 0.00 95 1012.5
20260906102024 69 0 0.0 2.0 0.00 0.03 0.00 94 1012.5
20260906101541 69 74 0.0 1.0 0.00 0.03 0.00 94 1012.5
20260906101024 69 0 0.0 0.0 0.00 0.03 0.00 94 1012.3
20260906100528 69 0 0.0 0.0 0.00 0.03 0.00 94 1012.3
20260906100047 69 0 0.0 0.0 0.00 0.03 0.00 95 1012.2
20260906095521 69 0 0.0 0.0 0.00 0.03 0.00 95 1012.4
20260906095027 69 0 0.0 0.0 0.00 0.03 0.00 95 1012.3
20260906094603 69 0 0.0 1.0 0.00 0.03 0.00 95 1012.4
20260906094024 69 0 0.0 1.0 0.00 0.03 0.00 95 1012.3
20260906093524 69 0 0.0 1.0 0.00 0.03 0.00 94 1012.2
20260906093056 69 0 0.0 1.0 0.00 0.03 0.00 94 1012.3
20260906092524 69 0 0.0 1.0 0.00 0.03 0.00 94 1012.2
20260906092025 69 0 0.0 0.0 0.00 0.03 0.00 94 1012.2
20260906091543 69 0 0.0 0.0 0.00 0.03 0.00 94 1012.2
20260906091025 70 0 0.0 1.0 0.00 0.03 0.00 94 1012.2
20260906090525 70 0 0.0 1.0 0.00 0.03 0.00 94 1012.2
20260906090109 70 0 0.0 1.0 0.00 0.03 0.00 94 1012.2
20260906085524 70 0 0.0 0.0 0.00 0.03 0.00 94 1012.1
20260906085025 70 0 0.0 2.0 0.00 0.03 0.00 94 1012.1
20260906084553 70 0 0.0 2.0 0.00 0.03 0.00 94 1011.9
20260906084025 70 74 1.0 2.0 0.00 0.03 0.00 94 1011.9
20260906083524 70 74 0.0 2.0 0.00 0.03 0.00 93 1012.0
20260906083044 70 74 1.0 2.0 0.00 0.03 0.00 93 1012.1
20260906082524 70 74 0.0 2.0 0.00 0.03 0.00 93 1012.0
20260906082025 70 0 0.0 1.0 0.00 0.03 0.00 93 1012.0
20260906081543 70 74 0.0 1.0 0.00 0.03 0.00 93 1011.9
20260906081026 70 0 0.0 1.0 0.00 0.03 0.00 93 1011.9
20260906080527 70 0 0.0 1.0 0.00 0.03 0.00 93 1011.9
20260906080042 70 0 0.0 2.0 0.00 0.03 0.00 93 1011.9
20260906075527 71 74 0.0 2.0 0.00 0.03 0.00 93 1012.0
20260906075024 71 74 1.0 3.0 0.00 0.03 0.00 93 1012.1
20260906074552 71 74 1.0 4.0 0.00 0.03 0.00 94 1012.1
20260906074024 71 40 1.0 5.0 0.00 0.03 0.00 94 1011.9
20260906073524 71 19 2.0 5.0 0.00 0.03 0.00 94 1011.9
20260906073044 71 46 2.0 5.0 0.00 0.03 0.00 94 1011.9
20260906072524 71 42 3.0 4.0 0.00 0.03 0.00 94 1011.9
20260906072025 70 15 0.0 3.0 0.00 0.03 0.00 94 1011.9
20260906071543 70 15 1.0 3.0 0.00 0.03 0.00 94 1012.1
20260906071024 70 15 1.0 3.0 0.00 0.03 0.00 94 1012.1
20260906070525 70 15 1.0 3.0 0.00 0.03 0.00 94 1012.2
20260906070047 70 0 0.0 3.0 0.00 0.03 0.00 94 1012.2
20260906065527 70 323 0.0 3.0 0.00 0.03 0.00 94 1012.3
20260906065026 70 323 0.0 4.0 0.00 0.03 0.00 94 1012.3
20260906064543 70 323 2.0 4.0 0.00 0.03 0.00 94 1012.3
20260906064027 70 20 2.0 4.0 0.00 0.03 0.00 94 1012.3
20260906063526 71 0 0.0 2.0 0.00 0.03 0.00 94 1012.2
20260906063043 71 171 0.0 2.0 0.00 0.03 0.00 94 1012.1
20260906062524 71 171 1.0 2.0 0.00 0.03 0.00 94 1012.0
20260906062021 71 171 1.0 2.0 0.00 0.03 0.00 94 1011.9
20260906061548 71 0 1.0 2.0 0.00 0.03 0.00 93 1011.8
20260906061021 71 171 0.0 1.0 0.00 0.03 0.00 93 1011.8
20260906060525 71 0 0.0 0.0 0.00 0.03 0.00 93 1011.8
20260906060048 71 0 0.0 1.0 0.00 0.03 0.00 93 1012.0
20260906055523 71 0 0.0 1.0 0.00 0.03 0.00 93 1011.9
20260906055024 71 0 0.0 1.0 0.00 0.03 0.00 93 1011.9
20260906054544 71 0 0.0 1.0 0.00 0.03 0.00 93 1011.8
20260906054025 71 0 0.0 4.0 0.00 0.03 0.00 93 1011.8
20260906053530 71 0 0.0 4.0 0.00 0.03 0.00 93 1011.9
20260906053050 71 171 0.0 2.0 0.00 0.03 0.00 93 1012.0
20260906052524 71 0 0.0 2.0 0.00 0.03 0.00 93 1012.0
20260906052024 71 171 0.0 2.0 0.00 0.03 0.00 93 1012.1
20260906051544 72 171 0.0 4.0 0.00 0.03 0.00 93 1012.1
20260906051024 72 126 1.0 4.0 0.00 0.03 0.00 93 1012.1
20260906050525 72 171 1.0 4.0 0.00 0.03 0.00 93 1012.2
20260906050044 72 0 0.0 3.0 0.00 0.03 0.00 93 1012.2
20260906045525 72 134 0.0 5.0 0.00 0.03 0.00 93 1012.3
20260906045025 72 134 2.0 5.0 0.00 0.03 0.00 93 1012.4
20260906044541 72 166 1.0 4.0 0.00 0.03 0.00 93 1012.4
20260906044023 72 189 0.0 2.0 0.00 0.03 0.00 93 1012.2
20260906043523 72 0 0.0 4.0 0.00 0.03 0.00 93 1012.1
20260906043045 72 0 1.0 4.0 0.00 0.03 0.00 93 1012.0
20260906042524 72 93 0.0 2.0 0.00 0.03 0.00 92 1012.1
20260906042024 72 0 0.0 2.0 0.00 0.03 0.00 92 1012.1
20260906041608 72 190 0.0 2.0 0.00 0.03 0.00 92 1012.2
20260906041023 72 0 0.0 2.0 0.00 0.03 0.00 92 1012.1
20260906040524 72 190 0.0 2.0 0.00 0.03 0.00 92 1012.1
20260906040043 72 0 0.0 0.0 0.00 0.03 0.00 91 1012.1
20260906035531 72 0 0.0 0.0 0.00 0.03 0.03 91 1012.2
20260906035024 72 0 0.0 0.0 0.00 0.03 0.03 91 1012.2
20260906034543 73 0 0.0 0.0 0.00 0.03 0.03 91 1012.1
20260906034024 73 0 0.0 2.0 0.00 0.03 0.03 91 1012.0
20260906033524 73 0 0.0 2.0 0.00 0.03 0.03 91 1012.0
20260906033047 73 190 1.0 2.0 0.00 0.03 0.03 91 1012.0
20260906032524 73 190 0.0 2.0 0.00 0.03 0.03 91 1012.0
20260906032024 73 190 0.0 1.0 0.00 0.03 0.03 91 1012.0
20260906031543 73 0 0.0 1.0 0.00 0.03 0.03 90 1011.9
20260906031024 73 0 0.0 2.0 0.00 0.03 0.03 90 1012.0
20260906030522 73 190 0.0 3.0 0.00 0.03 0.03 90 1012.1
20260906030049 73 0 0.0 4.0 0.00 0.03 0.03 90 1012.1
20260906025524 73 0 1.0 4.0 0.00 0.03 0.03 90 1012.2
20260906025025 73 129 2.0 7.0 0.00 0.03 0.03 90 1012.2
20260906024607 74 129 3.0 7.0 0.00 0.03 0.03 90 1012.3
20260906024023 74 169 3.0 7.0 0.00 0.03 0.03 89 1012.2
20260906023523 74 0 0.0 2.0 0.02 0.03 0.03 88 1012.1
20260906023045 74 0 0.0 2.0 0.02 0.03 0.03 88 1012.1
20260906022521 74 124 0.0 1.0 0.02 0.03 0.03 87 1012.1
20260906022022 75 0 0.0 6.0 0.02 0.03 0.03 87 1012.0
20260906021540 75 124 2.0 6.0 0.03 0.03 0.03 86 1012.2
20260906021023 75 175 3.0 6.0 0.03 0.03 0.03 86 1012.2
20260906020523 76 187 0.0 4.0 0.03 0.03 0.03 85 1012.2
20260906020046 76 0 0.0 7.0 0.03 0.03 0.03 85 1012.2
20260906015524 76 181 2.0 7.0 0.03 0.03 0.03 85 1012.2
20260906015024 77 142 2.0 12.0 0.03 0.03 0.03 84 1012.2
20260906014549 77 0 4.0 16.0 0.03 0.03 0.03 83 1012.0
20260906014024 78 84 4.0 16.0 0.02 0.02 0.02 81 1012.3
20260906013527 79 271 8.0 14.0 0.01 0.01 0.01 80 1012.3
20260906013041 80 257 0.0 9.0 0.01 0.01 0.01 76 1011.2
20260906012523 81 142 4.0 8.0 0.01 0.01 0.01 74 1011.0
20260906012023 82 96 0.0 3.0 0.01 0.01 0.01 76 1011.1
20260906011555 82 0 1.0 3.0 0.00 0.00 0.00 78 1010.9
20260906011022 82 113 1.0 3.0 0.00 0.00 0.00 78 1010.9
20260906010526 83 0 0.0 2.0 0.00 0.00 0.00 81 1010.9
20260906010119 83 125 0.0 2.0 0.00 0.00 0.00 80 1010.7
20260906005524 83 0 0.0 2.0 0.00 0.00 0.00 79 1010.7
20260906005024 83 0 0.0 2.0 0.00 0.00 0.00 78 1010.6
20260906004546 84 125 0.0 3.0 0.00 0.00 0.00 77 1010.6
20260906004026 84 125 1.0 3.0 0.00 0.00 0.00 79 1010.6
20260906003523 85 125 1.0 3.0 0.00 0.00 0.00 78 1010.7
20260906003047 85 125 1.0 2.0 0.00 0.00 0.00 76 1010.8
20260906002523 85 82 0.0 2.0 0.00 0.00 0.00 71 1010.7
20260906002022 85 0 0.0 3.0 0.00 0.00 0.00 71 1010.8
20260906001559 85 82 1.0 3.0 0.00 0.00 0.00 71 1010.8
20260906001022 86 307 1.0 2.0 0.00 0.00 0.00 74 1011.0
20260906000523 86 307 0.0 2.0 0.00 0.00 0.00 72 1011.0
20260906000046 87 307 1.0 2.0 0.00 0.00 0.00 70 1011.1
20260905235524 88 0 0.0 2.0 0.00 0.00 0.00 72 1011.4
20260905235024 88 0 0.0 2.0 0.00 0.00 0.00 69 1011.4
20260905234544 88 0 0.0 2.0 0.00 0.00 0.00 67 1011.3
20260905234025 88 0 0.0 2.0 0.00 0.00 0.00 66 1011.3
20260905233524 89 128 0.0 2.0 0.00 0.00 0.00 68 1011.3
20260905233043 89 19 1.0 2.0 0.00 0.00 0.00 68 1011.4
20260905232529 90 19 1.0 2.0 0.00 0.00 0.00 64 1011.3
20260905232022 90 0 0.0 2.0 0.00 0.00 0.00 67 1011.2
20260905231545 90 0 0.0 3.0 0.00 0.00 0.00 63 1011.2
20260905231024 91 19 0.0 3.0 0.00 0.00 0.00 63 1011.2
20260905230523 91 19 1.0 3.0 0.00 0.00 0.00 62 1011.0
20260905230052 92 19 0.0 4.0 0.00 0.00 0.00 62 1010.8
20260905225520 92 19 1.0 4.0 0.00 0.00 0.00 59 1010.9
20260905225025 92 19 1.0 4.0 0.00 0.00 0.00 58 1010.8
20260905224546 92 19 0.0 3.0 0.00 0.00 0.00 59 1010.9
20260905224024 92 19 0.0 4.0 0.00 0.00 0.00 61 1010.9
20260905223527 92 19 1.0 5.0 0.00 0.00 0.00 58 1010.9
20260905223044 92 340 2.0 5.0 0.00 0.00 0.00 58 1010.9
20260905222525 92 334 2.0 8.0 0.00 0.00 0.00 59 1010.9
20260905222020 92 360 2.0 8.0 0.00 0.00 0.00 57 1010.9
20260905221551 93 313 3.0 8.0 0.00 0.00 0.00 55 1011.0
20260905221024 93 0 1.0 6.0 0.00 0.00 0.00 58 1011.0
20260905220520 93 340 2.0 6.0 0.00 0.00 0.00 58 1010.8
20260905220047 93 323 2.0 4.0 0.00 0.00 0.00 57 1010.9
20260905215524 93 280 2.0 10.0 0.00 0.00 0.00 55 1011.0
20260905215023 94 292 1.0 10.0 0.00 0.00 0.00 55 1011.1
20260905214544 94 323 5.0 10.0 0.00 0.00 0.00 54 1011.2
20260905214024 94 298 1.0 4.0 0.00 0.00 0.00 55 1011.1
20260905213519 95 267 2.0 7.0 0.00 0.00 0.00 53 1011.0
20260905213055 95 297 3.0 9.0 0.00 0.00 0.00 53 1011.1
20260905212519 95 307 4.0 9.0 0.00 0.00 0.00 54 1011.1
20260905212019 94 0 1.0 4.0 0.00 0.00 0.00 55 1011.0
20260905211545 94 11 1.0 5.0 0.00 0.00 0.00 54 1011.1
20260905211024 94 327 1.0 8.0 0.00 0.00 0.00 55 1011.1
20260905210525 95 338 4.0 8.0 0.00 0.00 0.00 53 1011.1
20260905210041 95 275 2.0 10.0 0.00 0.00 0.00 55 1011.2
20260905205527 95 18 6.0 10.0 0.00 0.00 0.00 53 1011.2
20260905205024 96 331 3.0 10.0 0.00 0.00 0.00 53 1011.2
20260905204546 95 344 1.0 5.0 0.00 0.00 0.00 54 1011.3
20260905204020 95 287 2.0 5.0 0.00 0.00 0.00 54 1011.3
20260905203520 95 74 3.0 8.0 0.00 0.00 0.00 54 1011.5
20260905203052 95 0 1.0 8.0 0.00 0.00 0.00 53 1011.5
20260905202528 95 292 1.0 8.0 0.00 0.00 0.00 56 1011.5
20260905202024 95 321 3.0 8.0 0.00 0.00 0.00 54 1011.7
20260905201555 95 340 3.0 7.0 0.00 0.00 0.00 56 1011.7
20260905201024 94 222 0.0 8.0 0.00 0.00 0.00 56 1011.8
20260905200523 94 0 1.0 8.0 0.00 0.00 0.00 54 1011.8
20260905200044 94 296 3.0 8.0 0.00 0.00 0.00 55 1011.9
20260905195526 94 279 4.0 8.0 0.00 0.00 0.00 54 1011.9
20260905195026 94 221 2.0 7.0 0.00 0.00 0.00 57 1012.0
20260905194545 94 145 2.0 7.0 0.00 0.00 0.00 55 1012.1
20260905194024 94 302 2.0 11.0 0.00 0.00 0.00 58 1012.3
20260905193524 94 273 6.0 11.0 0.00 0.00 0.00 55 1012.3
20260905193042 94 188 3.0 8.0 0.00 0.00 0.00 59 1012.3
20260905192524 93 313 1.0 9.0 0.00 0.00 0.00 56 1012.3
20260905192024 94 350 5.0 9.0 0.00 0.00 0.00 55 1012.3
20260905191541 94 278 1.0 9.0 0.00 0.00 0.00 58 1012.3
20260905191021 94 275 2.0 9.0 0.00 0.00 0.00 57 1012.4
20260905190523 93 276 1.0 5.0 0.00 0.00 0.00 56 1012.5
20260905190045 93 163 1.0 5.0 0.00 0.00 0.00 58 1012.7
20260905185526 93 285 3.0 6.0 0.00 0.00 0.00 58 1012.7
20260905185025 93 279 3.0 6.0 0.00 0.00 0.00 57 1012.8
20260905184549 93 139 2.0 5.0 0.00 0.00 0.00 57 1012.9
20260905184024 93 178 1.0 6.0 0.00 0.00 0.00 58 1013.0
20260905183524 92 177 2.0 6.0 0.00 0.00 0.00 58 1013.0
20260905183101 92 288 1.0 4.0 0.00 0.00 0.00 58 1013.0
20260905182525 92 0 2.0 5.0 0.00 0.00 0.00 59 1013.0
20260905182029 91 179 2.0 5.0 0.00 0.00 0.00 57 1013.1
20260905181544 91 192 2.0 6.0 0.00 0.00 0.00 59 1013.2
20260905181023 91 97 2.0 7.0 0.00 0.00 0.00 60 1013.3
20260905180526 91 200 3.0 7.0 0.00 0.00 0.00 61 1013.5
20260905180050 90 126 3.0 7.0 0.00 0.00 0.00 61 1013.5
20260905175530 90 0 2.0 7.0 0.00 0.00 0.00 61 1013.5
20260905175024 90 249 3.0 6.0 0.00 0.00 0.00 62 1013.6
20260905174543 89 157 1.0 5.0 0.00 0.00 0.00 65 1013.7
20260905174024 89 87 2.0 5.0 0.00 0.00 0.00 60 1013.8
20260905173524 89 350 2.0 5.0 0.00 0.00 0.00 62 1013.8
20260905173043 89 302 2.0 8.0 0.00 0.00 0.00 63 1013.9
20260905172524 88 72 4.0 9.0 0.00 0.00 0.00 62 1014.0
20260905172025 89 100 5.0 9.0 0.00 0.00 0.00 62 1013.9
20260905171543 88 9 1.0 7.0 0.00 0.00 0.00 62 1014.0
20260905171023 89 38 2.0 7.0 0.00 0.00 0.00 62 1014.1
20260905170524 89 75 2.0 7.0 0.00 0.00 0.00 66 1014.1
20260905170058 88 0 1.0 6.0 0.00 0.00 0.00 66 1014.2
20260905165523 88 5 1.0 6.0 0.00 0.00 0.00 66 1014.3
20260905165024 87 268 2.0 9.0 0.00 0.00 0.00 66 1014.3
20260905164544 87 0 1.0 9.0 0.00 0.00 0.00 66 1014.4
20260905164023 87 55 1.0 9.0 0.00 0.00 0.00 68 1014.5
20260905163528 86 44 3.0 9.0 0.00 0.00 0.00 67 1014.5
20260905163042 86 49 4.0 9.0 0.00 0.00 0.00 66 1014.6
20260905162526 86 74 4.0 10.0 0.00 0.00 0.00 67 1014.7
20260905162023 86 84 2.0 10.0 0.00 0.00 0.00 66 1014.6
20260905161547 86 138 6.0 10.0 0.00 0.00 0.00 68 1014.5
20260905161028 85 133 1.0 8.0 0.00 0.00 0.00 69 1014.5
20260905160530 85 134 4.0 8.0 0.00 0.00 0.00 70 1014.5
20260905160107 85 0 1.0 8.0 0.00 0.00 0.00 70 1014.6
20260905155528 84 71 4.0 8.0 0.00 0.00 0.00 71 1014.7
20260905155022 84 69 5.0 8.0 0.00 0.00 0.00 70 1014.7
20260905154551 84 46 3.0 7.0 0.00 0.00 0.00 72 1014.7
20260905154022 83 63 1.0 8.0 0.00 0.00 0.00 75 1014.9
20260905153524 83 32 3.0 9.0 0.00 0.00 0.00 75 1014.9
20260905153041 82 360 4.0 9.0 0.00 0.00 0.00 74 1014.9
20260905152525 82 48 3.0 10.0 0.00 0.00 0.00 75 1015.0
20260905152024 81 28 5.0 10.0 0.00 0.00 0.00 75 1015.0
20260905151550 81 34 4.0 10.0 0.00 0.00 0.00 76 1015.1
20260905151025 81 75 5.0 11.0 0.00 0.00 0.00 77 1015.1
20260905150525 80 44 4.0 11.0 0.00 0.00 0.00 76 1015.1
20260905150051 80 69 5.0 12.0 0.00 0.00 0.00 76 1015.0
20260905145523 80 94 7.0 16.0 0.00 0.00 0.00 76 1015.0
20260905145024 81 79 9.0 16.0 0.00 0.00 0.00 75 1015.1
20260905144543 81 63 8.0 15.0 0.00 0.00 0.00 75 1015.0
20260905144021 82 71 6.0 15.0 0.00 0.00 0.00 76 1015.0
20260905143524 81 24 6.0 17.0 0.00 0.00 0.00 76 1015.0
20260905143042 81 103 8.0 17.0 0.00 0.00 0.00 77 1014.8
20260905142524 81 83 9.0 17.0 0.00 0.00 0.00 75 1015.0
20260905142025 81 44 8.0 15.0 0.00 0.00 0.00 75 1015.3
20260905141546 81 67 9.0 14.0 0.00 0.00 0.00 75 1015.0
20260905141027 82 65 9.0 19.0 0.00 0.00 0.00 75 1015.2
20260905140525 82 26 8.0 19.0 0.00 0.00 0.00 76 1015.1
20260905140049 82 48 6.0 12.0 0.00 0.00 0.00 78 1015.1
20260905135526 82 69 6.0 11.0 0.00 0.00 0.00 79 1015.0
20260905135025 81 48 3.0 7.0 0.00 0.00 0.00 80 1015.2
20260905134548 82 63 3.0 6.0 0.00 0.00 0.00 79 1015.0
20260905134024 82 76 3.0 5.0 0.00 0.00 0.00 81 1014.8
20260905133525 81 121 2.0 8.0 0.00 0.00 0.00 82 1014.8
20260905133047 80 67 3.0 8.0 0.00 0.00 0.00 83 1014.9
20260905132525 80 80 2.0 5.0 0.00 0.00 0.00 84 1015.0
20260905132027 79 80 1.0 5.0 0.00 0.00 0.00 85 1014.9
20260905131545 79 42 2.0 4.0 0.00 0.00 0.00 86 1015.0
20260905131026 78 48 1.0 9.0 0.00 0.00 0.00 86 1014.9
20260905130524 78 44 2.0 11.0 0.00 0.00 0.00 86 1015.0
20260905130044 78 57 5.0 11.0 0.00 0.00 0.00 87 1015.0
20260905125526 78 52 3.0 6.0 0.00 0.00 0.00 89 1015.1
20260905125025 77 39 1.0 8.0 0.00 0.00 0.00 90 1014.9
20260905124540 76 21 4.0 11.0 0.00 0.00 0.00 92 1014.8
20260905124024 75 49 5.0 11.0 0.00 0.00 0.00 94 1014.9
20260905123523 75 82 0.0 2.0 0.00 0.00 0.00 95 1014.8
20260905123045 74 0 0.0 2.0 0.00 0.00 0.00 95 1014.6
20260905122525 74 0 0.0 2.0 0.00 0.00 0.00 95 1014.6
20260905122028 74 0 0.0 2.0 0.00 0.00 0.00 95 1014.7
20260905121545 73 0 0.0 0.0 0.00 0.00 0.00 94 1014.5
20260905121030 73 0 0.0 0.0 0.00 0.00 0.00 94 1014.4
20260905120526 72 0 0.0 0.0 0.00 0.00 0.00 94 1014.4
20260905120042 72 0 0.0 2.0 0.00 0.00 0.00 93 1014.4
20260905115528 72 0 0.0 2.0 0.00 0.00 0.00 93 1014.3
20260905115025 72 0 0.0 0.0 0.00 0.00 0.00 93 1014.3
20260905114547 72 0 0.0 2.0 0.00 0.00 0.00 93 1014.3
20260905114025 73 0 0.0 2.0 0.00 0.00 0.00 93 1014.3
20260905113525 73 0 0.0 2.0 0.00 0.00 0.00 93 1014.3